GFSNW_sfc_30mbdewp_150.txt.gz
Dewpoint
45 45 45 44 44 44 41 36 30 41 44 32 30 25 23 24 21 20 16 16 12 12 15 14 13 11 9 22 22 19 20 20 19 15 17 17 18 17 18 20 18 23 24 23
45 45 45 44 44 44 39 31 33 43 42 25 27 25 25 21 21 17 19 18 19 22 20 14 18 13 15 16 13 17 22 21 11 5 18 21 20 20 21 22 25 23 22 21
45 45 44 44 44 44 37 31 28 35 38 31 21 21 21 22 24 21 20 20 24 21 25 22 25 20 22 31 27 30 27 20 17 13 13 19 18 18 21 22 27 23 24 26
45 44 44 44 44 44 37 33 27 29 28 30 25 22 20 19 18 22 23 23 21 19 21 20 18 20 21 20 20 18 19 20 21 22 23 19 19 22 22 19 22 23 26 26
44 44 45 44 43 43 36 33 30 31 25 27 26 24 22 19 18 22 22 21 20 23 21 21 20 21 22 25 29 26 25 23 29 27 25 21 24 31 32 29 27 26 26 26
44 45 45 44 43 43 37 36 37 29 26 25 25 25 23 22 23 23 23 21 22 23 24 26 26 27 26 26 25 25 25 22 19 17 19 22 21 27 29 25 26 27 24 23
44 45 44 43 43 41 40 39 35 28 24 26 25 23 24 23 24 23 24 26 25 26 30 29 31 31 30 29 28 27 24 22 19 19 20 18 25 26 25 25 25 26 26 27
44 45 44 44 43 43 40 40 37 34 26 22 22 22 23 23 25 26 27 27 28 29 36 31 28 26 27 27 28 28 29 26 20 19 16 16 17 19 25 25 20 26 26 28
43 43 43 43 43 43 41 39 41 36 26 24 29 27 28 27 28 28 29 30 32 33 33 29 23 18 19 19 25 27 27 29 23 21 22 11 19 26 28 27 21 26 27 30
43 42 43 43 43 43 41 39 41 35 32 29 32 30 29 32 30 29 30 31 33 36 30 27 23 20 19 19 20 26 25 26 24 22 20 18 24 27 28 21 22 28 28 29
42 42 42 43 43 43 41 39 42 38 34 31 34 33 29 29 30 27 28 32 34 32 28 28 25 23 23 20 19 24 24 24 23 24 22 20 29 28 24 28 30 29 29 30
43 43 43 43 42 42 41 39 42 42 37 35 37 36 34 33 32 31 36 33 35 34 31 32 28 26 25 20 18 22 21 22 23 24 22 31 30 31 31 30 30 30 29 29
43 43 43 43 44 43 41 40 42 40 33 34 35 32 33 35 36 38 34 35 38 37 38 36 32 26 24 21 20 21 26 28 27 28 27 30 31 31 30 30 30 29 29 29
43 43 43 43 43 43 42 40 42 38 36 29 29 35 36 38 37 37 39 38 39 40 39 36 31 28 30 24 25 26 26 30 27 27 28 29 30 31 30 31 30 29 29 29
43 42 42 42 42 44 44 42 42 41 35 30 31 33 32 36 36 40 38 39 38 37 36 34 32 31 30 30 31 28 30 28 29 27 30 30 30 32 31 31 29 28 28 27
42 42 42 43 44 44 41 35 42 42 40 33 25 33 36 37 36 38 40 41 39 38 35 34 37 36 33 32 27 27 30 30 30 29 30 31 32 31 31 30 29 28 28 27
41 42 43 43 43 43 36 35 39 41 40 33 29 27 34 36 37 39 40 41 38 36 34 33 35 36 35 34 26 30 30 30 31 30 30 29 29 29 29 29 29 28 27 27
41 41 41 42 43 41 38 40 42 42 37 35 29 28 32 38 33 32 37 33 34 33 33 35 33 33 34 30 29 31 31 31 30 29 30 28 29 28 28 28 27 26 25 25
42 42 41 40 38 35 38 40 42 42 37 30 31 25 27 36 34 35 34 36 31 35 32 33 32 31 29 29 27 30 31 30 29 28 28 28 27 27 26 26 26 25 25 24
39 38 35 31 35 40 42 39 36 35 35 34 30 31 30 34 33 32 30 29 28 26 29 30 31 26 27 24 28 31 31 30 29 27 27 27 27 26 25 25 25 25 25 23
37 33 32 37 41 37 34 29 29 31 28 32 30 30 31 34 31 29 28 27 27 19 25 26 24 23 27 29 31 32 31 30 29 28 28 27 27 26 25 24 24 24 25 25
37 36 38 36 33 31 28 28 30 30 26 31 29 30 34 34 33 26 28 25 26 17 28 25 20 26 28 32 32 31 30 29 28 28 28 28 27 27 26 25 24 23 21 21
37 33 31 30 29 23 23 21 24 27 30 31 32 31 33 34 31 29 27 26 25 28 26 21 24 28 30 31 30 30 31 30 29 29 29 28 28 27 27 25 24 23 23 23
31 28 23 25 23 23 24 26 28 31 32 32 32 33 32 31 28 29 25 28 27 24 21 18 28 29 31 32 32 31 31 31 30 30 30 30 29 28 27 27 25 24 22 21
30 28 22 23 28 29 31 32 32 32 33 31 29 28 28 28 26 27 26 25 22 22 19 27 29 30 30 32 32 33 32 30 30 31 29 28 27 26 25 25 25 24 22 20
29 27 26 28 29 29 31 32 31 33 32 31 28 24 24 23 23 21 22 19 15 24 28 29 30 29 29 30 31 31 31 31 31 29 28 27 26 26 25 24 24 22 21 19
28 27 30 29 30 29 30 32 33 34 31 28 24 20 21 25 23 22 23 24 26 29 29 30 30 29 28 28 28 27 28 29 29 28 28 26 25 23 23 23 21 22 21 21

GFSNW_sfc_30mbdewp_156.txt.gz
Dewpoint
48 48 48 46 46 44 42 38 34 43 42 36 32 30 23 19 14 15 16 15 8 5 4 4 5 4 4 10 11 10 10 14 17 15 16 15 12 10 9 13 14 18 23 26
48 48 48 46 46 44 34 36 35 40 40 28 28 25 24 20 19 13 8 6 4 7 8 14 19 13 12 11 14 18 19 17 11 14 15 15 11 9 12 18 15 14 17 22
48 49 48 46 45 42 38 33 31 36 39 33 25 21 20 18 20 15 11 9 10 15 14 16 19 12 10 14 15 23 22 15 17 18 16 13 11 12 13 17 23 23 25 23
48 49 48 46 45 42 42 36 30 31 28 31 30 27 19 16 17 17 14 12 13 15 18 17 17 18 17 17 19 19 20 18 17 16 15 16 17 17 18 20 20 22 23 17
46 48 48 47 45 42 41 35 29 28 22 26 27 27 22 19 17 15 15 12 11 13 12 21 16 15 16 17 19 20 23 25 21 20 21 19 20 23 23 19 17 15 15 17
45 46 48 47 44 42 36 35 29 30 26 27 23 24 20 17 15 14 15 16 14 14 17 20 24 28 27 26 25 23 23 25 23 21 20 19 19 20 21 18 16 16 14 16
44 46 47 47 45 41 33 33 29 26 25 22 22 20 20 17 18 17 18 18 18 19 25 29 28 27 25 25 26 27 24 24 25 23 22 17 19 16 14 12 14 18 21 19
42 45 46 46 44 43 38 34 33 31 26 22 18 19 18 19 19 19 19 20 20 24 32 29 24 21 21 22 24 25 27 27 25 23 20 18 16 14 12 24 27 30 23 26
42 44 47 46 45 43 41 41 38 35 29 25 20 19 18 19 19 20 20 21 24 26 33 29 20 15 11 10 21 24 25 28 26 23 21 13 14 29 31 23 20 25 25 27
43 44 46 46 45 43 41 42 42 37 30 26 25 21 21 21 20 19 23 25 27 29 30 27 21 19 17 14 12 14 26 25 27 25 20 18 17 32 33 21 23 30 29 27
42 46 46 46 45 44 41 41 44 39 32 28 27 27 25 25 30 28 29 29 30 34 30 29 24 22 21 20 20 20 28 26 24 24 21 20 21 27 25 31 30 28 27 28
44 46 45 45 46 44 41 38 43 44 39 36 38 36 33 29 28 32 33 30 34 35 31 31 31 27 30 27 27 23 27 27 22 20 21 35 34 31 32 31 29 30 29 29
45 45 46 45 45 44 41 40 43 41 37 34 33 29 31 34 34 33 32 31 29 36 37 34 32 28 28 26 26 27 27 29 32 30 29 34 36 33 30 30 30 30 30 30
45 45 45 45 44 43 42 41 43 40 35 29 27 30 32 32 31 31 34 34 33 32 37 34 32 28 29 33 34 33 33 35 34 32 29 27 31 31 31 30 31 30 30 30
45 45 45 45 44 44 42 43 44 42 34 30 28 28 28 29 31 31 32 33 35 34 34 32 30 29 30 31 31 30 28 27 28 30 31 30 32 32 32 32 31 29 29 29
45 45 44 43 42 42 40 36 40 42 41 34 25 26 26 27 30 31 33 35 36 36 35 33 34 33 33 31 26 26 29 27 34 33 34 34 33 33 32 32 31 30 29 29
44 43 42 42 42 41 35 35 39 42 41 33 29 22 25 26 28 32 33 36 38 36 35 33 34 33 34 33 28 28 28 30 32 33 32 30 29 29 30 30 29 29 28 28
42 42 42 43 41 39 37 41 42 42 38 36 27 23 28 35 33 32 39 36 37 35 32 33 34 33 35 30 32 30 29 29 31 31 30 30 29 29 29 29 29 27 27 28
43 43 42 40 38 36 38 43 42 42 37 30 28 23 22 37 35 34 33 35 29 35 31 32 35 32 29 33 30 28 28 29 31 30 28 28 28 27 28 27 27 27 28 28
42 39 34 31 36 43 43 40 34 35 34 34 30 28 25 34 33 31 31 32 31 27 31 35 33 28 31 29 29 28 31 32 31 29 29 28 27 27 27 26 27 28 28 28
39 35 34 40 43 39 36 30 29 30 28 32 30 25 27 35 31 32 35 32 33 29 31 31 27 24 27 28 28 27 33 31 31 30 29 29 28 28 27 28 28 29 29 28
37 37 39 38 35 32 28 27 28 28 21 29 28 27 26 34 35 33 33 31 29 22 29 25 22 28 28 28 28 33 31 30 29 28 27 27 28 29 29 29 29 30 30 28
38 35 32 31 30 25 24 22 23 25 28 32 33 33 34 35 36 32 33 29 25 29 25 21 26 29 28 28 31 30 29 27 26 27 28 29 29 30 29 30 30 29 29 27
33 30 26 26 25 25 24 26 29 33 33 33 35 33 33 35 32 31 27 28 28 22 19 20 30 33 34 31 31 29 31 32 32 34 33 32 30 30 30 29 29 27 26 27
31 31 26 25 28 30 32 32 33 34 36 35 34 33 34 32 28 29 27 25 21 20 20 31 31 31 33 32 34 34 33 34 34 33 31 30 29 29 29 30 30 27 26 26
31 28 27 29 28 30 31 32 33 35 36 35 35 30 30 24 25 22 23 16 14 28 29 31 30 32 34 35 36 36 36 35 34 32 31 30 29 29 29 29 28 27 26 25
29 29 30 31 30 31 32 33 34 36 35 32 28 20 19 24 20 17 20 25 30 30 31 32 32 32 32 32 32 32 34 34 33 32 32 31 31 28 27 26 27 27 27 25

GFSNW_sfc_30mbdewp_162.txt.gz
Dewpoint
45 47 48 50 49 46 40 37 31 40 44 34 32 27 29 28 21 19 18 15 14 12 11 10 9 10 15 14 16 15 21 17 13 13 16 17 16 18 18 14 12 20 17 14
43 44 46 48 49 45 38 34 33 44 42 28 29 30 28 27 24 26 16 13 14 11 9 6 13 16 19 19 18 19 19 17 13 9 11 20 16 16 19 20 23 19 16 17
41 44 45 47 49 46 38 35 30 36 41 37 30 27 25 25 27 26 25 18 15 12 10 17 12 12 16 22 22 23 19 17 15 8 14 19 16 17 18 20 17 17 18 18
40 42 44 46 47 47 41 37 32 32 29 32 34 31 30 25 24 24 24 18 16 13 13 16 17 20 19 19 23 24 20 16 18 18 20 20 19 19 19 19 20 17 12 17
39 40 43 44 45 48 39 32 34 34 29 30 31 32 29 28 29 29 20 17 16 16 15 15 13 15 16 16 24 22 23 17 20 18 22 23 23 25 23 23 23 21 21 21
38 39 41 43 45 46 33 36 40 33 28 29 31 29 28 27 28 28 26 21 19 17 20 24 23 25 28 27 26 25 24 23 22 18 22 24 21 22 23 23 23 21 20 22
38 39 40 42 43 44 38 39 38 34 28 28 26 26 26 27 27 28 25 25 21 25 30 29 28 27 26 26 26 28 25 24 24 21 21 12 15 23 23 21 21 22 23 28
37 38 40 41 42 42 41 41 39 34 28 29 28 27 27 27 27 28 25 22 27 32 30 26 22 20 20 21 22 22 27 25 22 18 17 19 20 19 19 21 20 27 28 33
37 39 40 40 42 43 44 41 41 38 31 26 27 28 29 27 24 22 20 23 33 31 29 25 20 15 18 15 16 26 24 26 23 22 19 16 20 26 31 30 22 31 31 33
37 39 39 40 41 42 43 41 44 39 33 31 28 25 24 27 25 22 23 22 24 29 27 23 21 19 19 15 15 17 24 25 24 23 21 23 26 24 30 20 18 30 31 33
38 39 39 40 41 42 41 40 44 39 35 32 35 34 26 27 25 21 30 26 28 28 22 23 23 22 22 19 18 18 19 23 24 25 23 20 27 31 25 26 32 31 29 33
38 38 39 40 41 41 42 39 42 45 39 33 39 37 36 33 32 33 34 30 33 32 27 29 30 27 28 27 22 28 25 32 29 28 24 28 35 33 37 36 32 29 32 36
37 38 39 40 41 41 42 39 41 41 37 32 31 29 34 36 34 36 29 33 37 36 37 33 31 27 30 25 25 29 30 34 27 29 33 34 37 38 37 35 31 32 35 35
38 39 40 41 41 42 43 41 43 39 37 29 27 33 31 32 34 35 34 34 36 37 37 33 31 29 30 27 28 29 28 28 31 33 34 36 37 38 35 36 32 34 35 35
39 40 40 40 41 43 42 43 43 41 34 29 29 32 30 33 33 33 34 33 33 33 32 30 28 30 29 29 31 28 29 29 30 31 36 37 37 37 38 38 31 33 33 33
39 39 39 41 42 44 41 33 42 43 38 32 24 30 29 31 33 32 32 34 34 33 31 31 31 33 29 27 25 27 31 35 36 33 37 38 38 37 38 37 31 31 31 33
38 39 40 43 44 42 36 34 39 41 40 32 24 24 28 29 31 33 33 35 34 33 33 33 32 32 31 30 26 28 30 31 31 34 36 33 31 31 34 32 31 31 30 32
40 41 44 42 43 41 38 42 42 40 36 35 24 24 27 34 29 30 36 33 35 35 34 34 32 32 31 27 27 27 27 28 30 31 33 31 31 31 31 30 30 29 29 29
42 43 42 39 37 35 39 42 41 40 32 28 28 24 21 36 33 34 34 36 30 35 31 31 33 30 26 29 30 31 32 33 32 33 33 31 31 30 29 29 29 28 28 28
40 38 34 31 38 42 40 37 34 34 33 31 27 28 25 33 32 31 31 32 28 25 29 33 29 26 26 28 32 33 33 33 34 33 30 31 30 30 29 29 29 29 28 27
37 34 33 39 40 36 33 28 29 28 26 30 28 29 27 35 28 29 31 29 30 25 27 27 27 27 30 31 30 31 33 35 34 33 32 32 31 30 29 30 30 29 28 27
37 37 38 37 34 30 26 24 27 26 23 28 27 28 29 33 35 31 31 29 30 24 31 28 26 27 30 33 34 36 35 35 34 31 32 32 31 30 30 30 30 29 28 27
36 33 31 28 28 22 20 18 22 22 26 29 29 29 30 33 33 29 30 28 25 31 27 23 25 31 32 32 33 34 34 34 34 33 32 32 31 31 30 29 28 28 26 25
29 26 23 24 21 22 23 23 24 27 33 31 33 32 31 32 30 29 26 29 30 23 21 21 30 31 32 32 31 30 31 31 31 30 29 29 29 28 27 27 26 25 24 23
30 27 22 24 27 31 31 31 30 33 35 34 32 32 32 31 29 29 27 24 21 23 21 30 30 31 32 31 31 30 29 29 29 29 27 27 27 27 26 24 24 23 23 22
30 29 25 28 27 28 29 29 29 34 34 34 32 30 28 27 27 26 24 22 18 23 29 30 31 32 33 32 32 31 30 29 29 28 28 27 27 26 25 24 24 23 23 22
28 28 30 28 27 28 30 31 30 35 34 30 31 27 26 30 26 23 25 23 28 29 29 29 30 32 32 33 33 31 30 29 29 28 27 27 27 25 24 22 23 24 23 23

GFSNW_sfc_30mbdewp_165.txt.gz
Dewpoint
42 43 45 47 48 49 43 37 30 38 44 34 30 26 29 30 22 24 20 18 15 12 11 9 10 11 14 14 16 11 19 16 11 10 15 20 17 16 19 15 12 20 17 15
40 42 44 44 47 48 41 35 33 43 41 26 27 28 29 26 25 24 24 16 16 15 8 6 13 15 19 21 16 16 19 15 9 7 8 18 17 18 19 20 22 18 16 15
38 40 42 45 45 47 41 34 29 37 40 34 26 27 27 26 28 25 23 23 22 14 11 14 9 11 16 21 19 23 18 16 10 3 4 18 15 18 18 18 15 13 14 16
37 38 39 43 44 45 42 35 31 34 30 33 31 28 27 25 24 24 24 26 22 17 11 15 17 18 19 18 21 23 21 14 17 17 19 20 19 18 20 20 18 14 11 12
37 37 38 41 43 44 42 31 31 34 31 34 33 31 28 28 28 26 26 21 21 20 16 14 12 18 15 12 23 22 23 16 20 17 18 21 21 23 23 24 24 23 22 22
37 37 38 40 42 42 35 35 38 36 31 30 31 30 30 28 29 29 29 28 25 18 18 19 19 19 19 22 23 23 24 23 22 16 21 20 17 17 19 22 24 23 21 21
36 36 38 40 41 41 37 36 38 32 28 29 29 28 29 29 29 28 27 29 28 25 30 29 28 27 26 27 27 28 24 24 23 20 19 14 14 19 23 22 22 23 23 23
35 36 38 39 40 41 40 40 36 31 30 30 27 28 27 28 30 29 28 28 28 32 28 24 21 21 21 21 23 21 27 25 22 19 17 16 17 16 18 18 18 22 22 23
34 36 37 38 39 39 40 40 41 34 30 30 29 28 28 26 26 26 27 27 33 32 28 24 17 15 17 14 16 26 25 25 22 21 16 12 19 22 29 30 22 26 29 30
35 35 37 37 38 39 40 39 42 37 30 34 30 29 27 29 27 24 24 28 30 30 24 21 19 18 20 15 13 15 24 25 22 21 18 20 24 24 29 20 18 28 32 32
35 35 36 37 38 39 39 38 42 38 32 35 34 33 27 28 26 22 26 27 28 25 21 22 22 21 20 18 16 17 21 22 22 24 21 17 31 28 25 25 31 31 30 33
36 36 36 37 38 39 39 36 41 42 36 36 38 37 36 34 29 28 33 26 29 27 23 26 25 23 26 25 19 28 22 27 27 28 26 31 32 34 36 37 35 31 30 34
35 36 36 37 38 38 39 37 40 39 34 35 33 30 31 36 35 36 27 33 37 35 36 32 30 27 31 25 26 28 30 34 30 30 27 33 35 36 37 37 36 34 33 35
34 36 37 39 39 38 39 38 40 38 35 31 30 33 31 32 35 34 33 35 37 38 37 33 31 28 30 27 27 29 28 30 27 28 30 34 37 37 38 38 38 33 36 35
37 36 37 38 38 39 40 40 41 40 36 30 28 32 31 33 33 32 35 35 35 34 32 30 28 30 29 28 28 23 25 22 23 23 31 34 34 36 38 38 38 34 34 34
37 37 37 38 39 40 39 32 42 41 41 32 26 28 29 32 33 32 33 33 32 31 29 29 29 31 26 25 23 23 25 28 31 30 35 36 33 34 37 37 38 33 34 34
38 39 38 39 40 39 35 34 38 43 41 31 23 22 28 30 33 33 33 35 33 32 30 30 30 30 30 27 22 25 27 30 32 37 34 30 33 33 33 36 37 33 33 34
38 39 39 40 40 40 38 43 43 42 36 32 22 22 25 33 28 29 35 32 34 33 30 34 31 32 31 26 26 25 26 27 27 28 28 29 31 32 32 32 32 30 31 32
38 39 40 40 38 34 39 42 40 38 32 27 26 20 18 33 32 32 33 34 28 33 31 31 32 29 25 27 28 28 28 28 28 31 33 33 33 31 30 30 30 29 29 30
39 37 32 31 36 43 40 35 33 32 32 31 26 27 24 31 30 28 29 32 29 25 27 33 29 25 26 27 28 29 30 32 33 33 30 32 32 31 30 29 30 29 28 28
37 32 32 39 40 35 31 29 27 27 26 29 27 27 26 33 27 27 31 29 29 23 26 26 24 25 27 29 29 31 29 32 33 33 34 34 33 34 36 35 32 30 28 27
36 37 37 36 33 29 24 24 27 24 22 27 26 27 29 33 34 29 30 27 29 23 31 27 24 27 31 34 35 35 34 34 33 33 33 34 34 35 33 31 30 29 28 27
34 31 30 26 26 21 18 18 21 21 24 27 29 28 28 34 33 28 29 26 24 31 27 25 26 30 31 33 34 34 34 33 32 32 33 32 32 32 31 30 29 28 27 24
27 23 21 20 20 20 21 20 22 24 30 29 30 30 30 30 30 28 25 26 29 24 21 20 28 30 31 31 32 33 33 32 30 30 30 29 29 28 28 28 27 26 24 22
28 24 19 23 26 28 29 30 30 31 34 33 32 31 32 30 27 28 26 25 21 23 20 27 30 31 31 30 30 30 29 29 29 28 27 26 26 26 24 24 24 24 22 22
29 27 25 26 25 26 27 27 28 31 33 34 32 30 27 27 27 24 22 22 17 19 28 30 32 33 32 31 31 30 29 29 28 27 27 26 26 25 24 23 22 22 22 21
27 26 28 26 25 25 28 29 29 33 33 28 30 27 26 30 25 24 25 23 25 29 29 29 29 31 32 32 32 30 29 29 28 27 27 26 25 24 24 23 23 23 21 21

GFSNW_sfc_30mbdewp_168.txt.gz
Dewpoint
39 40 41 44 44 48 44 39 32 38 44 33 32 27 28 28 26 23 20 21 18 15 12 9 11 14 14 18 15 11 19 14 9 7 15 20 17 15 15 10 7 19 16 11
38 39 40 42 44 46 41 35 35 42 41 26 27 28 28 27 24 24 25 20 19 17 13 8 12 13 18 22 16 16 18 14 7 8 11 16 16 18 20 21 22 16 12 11
34 38 39 40 43 44 42 33 29 34 39 33 25 26 25 24 28 25 22 22 22 20 14 13 9 11 14 20 18 24 18 15 10 6 7 12 10 17 19 17 14 13 15 15
34 35 37 38 40 43 43 35 31 34 29 31 31 26 25 25 25 27 26 25 21 16 16 13 14 15 18 19 19 21 18 12 14 15 16 18 17 16 17 18 17 14 10 11
37 36 37 38 39 42 38 32 31 33 32 35 32 29 26 26 26 25 26 22 21 22 20 16 14 18 18 13 22 20 23 15 19 16 18 19 18 20 20 20 21 21 20 20
34 36 38 38 38 40 37 35 36 35 32 31 31 31 29 27 28 29 28 26 27 27 25 23 20 19 18 15 17 22 24 21 22 16 20 20 17 20 21 21 23 22 19 20
31 34 36 37 38 39 38 36 36 31 27 30 30 33 33 30 30 30 29 30 28 28 31 28 28 26 26 26 26 26 23 24 23 19 20 13 14 19 20 20 21 23 23 23
32 33 35 37 38 39 39 39 36 31 27 31 30 30 30 32 31 32 31 30 30 33 32 25 22 22 21 22 25 26 28 25 22 19 17 16 17 15 16 16 17 20 20 22
34 34 34 35 36 39 39 39 39 35 29 27 32 32 33 30 30 30 29 30 32 35 32 29 22 20 17 15 17 27 26 27 23 21 17 13 15 22 28 30 19 23 27 28
34 34 35 34 35 36 38 37 39 36 30 31 34 32 31 33 32 28 25 29 32 34 29 25 23 21 19 15 13 12 23 24 22 22 20 21 21 29 28 19 17 26 31 32
35 35 35 34 34 36 37 35 39 35 32 32 34 35 34 33 33 27 26 27 28 30 26 26 25 23 20 18 17 16 16 20 22 23 20 16 29 29 25 28 34 34 32 33
36 36 36 34 35 36 37 35 39 40 34 32 39 39 38 37 34 27 30 25 26 26 23 24 24 22 23 21 16 23 16 21 22 23 24 27 30 29 31 33 35 35 34 32
36 36 36 35 35 36 36 35 37 37 33 33 34 33 37 37 37 36 28 32 34 34 33 29 29 23 29 23 24 25 29 34 29 30 29 32 32 32 35 37 36 37 37 34
36 35 36 36 36 36 37 36 37 36 35 28 29 36 36 37 36 34 33 34 38 38 36 32 30 27 32 28 27 28 27 32 29 29 28 28 32 35 38 38 38 39 36 35
35 36 34 34 37 37 38 38 38 38 34 29 31 33 33 35 35 34 37 37 35 33 31 30 28 31 30 30 28 25 28 26 23 20 21 24 31 32 35 37 38 40 36 34
35 36 36 35 37 37 37 31 37 40 39 32 27 31 31 33 33 33 35 33 32 31 29 28 29 30 28 20 22 20 21 23 24 21 24 32 35 35 37 35 36 37 35 34
36 36 37 37 37 38 32 30 37 40 40 31 27 28 28 32 33 33 32 34 32 30 29 28 28 29 31 25 19 21 22 22 24 28 32 33 34 34 31 30 34 37 35 34
37 37 38 38 38 38 35 37 38 42 36 33 26 23 27 32 29 29 33 31 32 32 29 31 29 30 28 23 24 25 24 24 25 26 30 29 30 29 29 32 33 33 33 33
37 37 38 38 35 33 35 39 43 41 35 28 26 20 22 32 30 31 32 32 27 30 30 30 31 28 25 26 27 27 28 26 26 26 29 30 32 33 33 32 31 31 31 32
38 36 32 29 35 39 40 35 31 31 32 31 24 27 27 30 28 27 28 31 28 24 28 33 28 24 25 25 27 28 28 30 29 28 29 30 31 31 31 30 30 30 30 31
36 31 30 37 41 35 32 28 27 27 25 28 27 26 27 32 26 26 29 26 28 23 24 26 24 23 24 27 28 28 29 30 29 31 32 32 33 32 33 34 34 32 30 29
35 35 38 37 33 30 25 24 26 23 21 26 25 26 28 31 32 28 29 25 27 21 30 25 22 26 31 33 35 35 34 32 32 33 33 34 35 35 36 37 37 35 30 28
38 33 29 28 25 20 17 17 21 22 24 27 28 26 27 33 31 27 28 24 22 30 25 22 24 30 31 32 33 33 33 33 32 32 33 33 33 35 36 35 32 29 27 25
28 23 21 19 19 19 20 20 21 23 28 27 28 28 27 29 29 27 24 23 27 23 21 21 26 30 31 30 31 33 32 30 30 30 30 29 30 28 28 29 28 26 24 22
27 23 18 23 25 26 27 28 30 31 33 31 30 30 31 29 27 27 25 24 21 22 20 24 30 31 31 30 30 29 29 28 28 27 26 26 25 25 24 24 25 23 21 21
28 26 24 25 24 25 27 28 28 30 31 34 32 29 27 26 27 25 22 20 19 17 26 29 31 32 32 31 31 29 29 28 27 26 26 25 24 24 23 22 22 21 21 20
27 25 27 25 24 24 26 29 28 34 31 27 29 24 24 29 25 23 24 23 23 28 29 29 29 31 31 32 32 30 29 28 27 27 26 25 24 23 24 23 21 21 20 19